TimePST,TemperatureF,Dew PointF,Humidity,Sea Level PressureIn,VisibilityMPH,Wind Direction,Wind SpeedMPH,Gust SpeedMPH,PrecipitationIn,Events,Conditions,WindDirDegrees,DateUTC
12:53 AM,46.9,44.1,90,30.24,10.0,SE,4.6,-,0.00,,Overcast,130,2013-03-01 08:53:00
1:53 AM,46.0,44.1,93,30.24,10.0,Calm,Calm,-,N/A,,Overcast,0,2013-03-01 09:53:00
2:43 AM,46.4,44.6,93,30.23,10.0,Calm,Calm,-,N/A,,Overcast,0,2013-03-01 10:43:00
2:53 AM,46.0,44.1,93,30.23,10.0,Calm,Calm,-,N/A,,Overcast,0,2013-03-01 10:53:00
3:43 AM,46.0,44.1,93,30.21,5.0,Calm,Calm,-,N/A,,Mostly Cloudy,0,2013-03-01 11:43:00
3:53 AM,45.0,44.1,97,30.22,10.0,Calm,Calm,-,N/A,,Mostly Cloudy,0,2013-03-01 11:53:00
4:53 AM,46.0,45.0,96,30.22,10.0,ESE,3.5,-,0.00,Rain,Light Rain,110,2013-03-01 12:53:00
5:53 AM,46.0,44.1,93,30.22,10.0,ESE,6.9,-,0.00,,Scattered Clouds,120,2013-03-01 13:53:00
6:04 AM,46.0,44.1,93,30.22,10.0,ESE,5.8,-,N/A,,Scattered Clouds,110,2013-03-01 14:04:00
6:53 AM,48.0,45.0,89,30.22,10.0,Calm,Calm,-,0.00,Rain,Light Rain,0,2013-03-01 14:53:00
7:53 AM,48.2,46.4,93,30.23,10.0,Calm,Calm,-,N/A,,Mostly Cloudy,0,2013-03-01 15:53:00
8:53 AM,50.0,46.9,89,30.25,10.0,SE,11.5,-,N/A,,Overcast,130,2013-03-01 16:53:00
9:53 AM,55.0,48.9,80,30.25,10.0,SSE,5.8,-,N/A,,Overcast,150,2013-03-01 17:53:00
10:53 AM,55.0,48.0,77,30.24,10.0,ENE,5.8,-,N/A,,Mostly Cloudy,60,2013-03-01 18:53:00
11:53 AM,51.1,46.0,83,30.24,10.0,NNE,8.1,-,N/A,,Clear,30,2013-03-01 19:53:00
12:53 PM,52.0,46.0,80,30.25,10.0,Variable,3.5,-,N/A,,Clear,0,2013-03-01 20:53:00
1:53 PM,54.0,46.0,75,30.22,10.0,East,10.4,-,N/A,,Clear,90,2013-03-01 21:53:00
2:53 PM,54.0,46.0,75,30.21,10.0,East,4.6,-,N/A,,Clear,90,2013-03-01 22:53:00
3:53 PM,54.0,46.0,75,30.22,10.0,East,8.1,-,N/A,,Clear,90,2013-03-01 23:53:00
4:53 PM,54.0,46.0,75,30.22,10.0,East,8.1,-,N/A,,Clear,100,2013-03-02 00:53:00
5:53 PM,51.8,44.6,76,30.23,10.0,ESE,4.6,-,N/A,,Clear,110,2013-03-02 01:53:00
6:53 PM,50.0,46.0,86,30.25,10.0,Calm,Calm,-,N/A,,Mostly Cloudy,0,2013-03-02 02:53:00
7:53 PM,48.9,46.9,93,30.26,10.0,SE,3.5,-,N/A,,Overcast,140,2013-03-02 03:53:00
8:08 PM,48.9,46.0,90,30.25,10.0,East,4.6,-,N/A,,Overcast,100,2013-03-02 04:08:00
8:26 PM,48.2,46.4,93,30.24,10.0,SE,5.8,-,N/A,,Overcast,130,2013-03-02 04:26:00
8:53 PM,50.0,46.0,86,30.25,10.0,East,5.8,-,N/A,,Overcast,100,2013-03-02 04:53:00
9:53 PM,48.9,46.0,90,30.25,10.0,ESE,5.8,-,N/A,,Overcast,110,2013-03-02 05:53:00
10:27 PM,48.9,46.0,90,30.24,10.0,ESE,8.1,-,N/A,,Overcast,120,2013-03-02 06:27:00
10:42 PM,48.9,46.0,90,30.24,10.0,SE,6.9,-,N/A,,Overcast,130,2013-03-02 06:42:00
10:53 PM,48.9,46.0,90,30.24,10.0,ESE,5.8,-,0.00,Rain,Light Rain,120,2013-03-02 06:53:00
11:24 PM,48.9,46.0,90,30.24,10.0,ESE,3.5,-,0.00,Rain,Light Rain,110,2013-03-02 07:24:00
11:44 PM,48.9,46.9,93,30.24,10.0,ESE,3.5,-,0.00,,Overcast,120,2013-03-02 07:44:00
11:53 PM,48.9,46.0,90,30.24,10.0,ESE,3.5,-,0.00,,Overcast,120,2013-03-02 07:53:00